Location: ?kun?ru
(16.3916°N, 80.8194°E)
Time: 02:13:22
(UTC+00:00)

USA 238 DEB - Pass Details

Date: 19 May 2025
Orbit: 899 x 1311 km, 63.4° (Epoch: 11 June)

Event Time Altitude Azimuth Distance (km) Brightness Sun altitude
Rises 23:21:38 0° 326° (NNW) 4,175 6.7 -10.4°
Reaches altitude 10° 23:24:27 10° 322° (NW) 3,247 6.1 -9.8°
Maximum altitude 23:32:06 53° 248° (WSW) 1,570 4.2 -8.1°
Drops below altitude 10° 23:39:57 10° 174° (S) 3,316 6.1 -6.4°
Sets 23:42:52 0° 169° (S) 4,268 6.7 -5.8°
